Hourly Data Report for July 21, 2021

BORDEN AWOS
ONTARIO
Current Station Operator: DND

44°16'20.000" N
79°54'42.000" W
222.50 m
611B002
71534
YBN

Download Data

Hourly Data (July 2021)
Hourly Data Report for July 21, 2021
TIME
LST
Temp Definition
°C
Dew Point Definition
°C
Rel Hum Definition
%
Precip. Amount Definition
mm

Wind Dir Definition
10's deg

Wind Spd Definition
km/h
Visibility Definition
km
Stn Press Definition
kPa
Hmdx Definition


Wind Chill Definition


Weather Definition


00:00 16.3 14.4 89   36 7 14.5 98.95     LegendNANA
01:00 14.9 13.7 93   34 11 14.5 98.96     LegendNANA
02:00 13.8 13.0 95   34 6 14.5 98.96     LegendNANA
03:00 13.3 12.6 96   32 7 14.5 98.97     LegendNANA
04:00 12.5 11.9 96     0 14.5 98.96     LegendNANA
05:00 11.1 10.8 98   34 4 14.5 98.98     LegendNANA
06:00 13.7 13.2 97   31 6 14.5 99.02     LegendNANA
07:00 16.3 13.7 85   35 7 14.5 99.08     LegendNANA
08:00 18.0 12.5 70   34 13 14.5 99.15     LegendNANA
09:00 18.8 12.5 67   30 13 14.5 99.18     LegendNANA
10:00 20.5 12.6 61   34 17 14.5 99.19     LegendNANA
11:00 20.7 10.9 53   1 9 14.5 99.21     LegendNANA
12:00 22.4 11.5 50   34 15 14.5 99.21     LegendNANA
13:00 22.9 11.5 49   29 20 14.5 99.21 25   LegendNANA
14:00 23.2 12.3 50   32 15 14.5 99.21 26   LegendNANA
15:00 21.8 11.6 52   32 20 14.5 99.22     LegendNANA
16:00 21.8 11.4 52   33 20 14.5 99.23     LegendNANA
17:00 21.2 11.2 53   34 15 14.5 99.24     LegendNANA
18:00 20.2 11.0 55   32 9 14.5 99.24     LegendNANA
19:00 18.7 10.8 60   32 7 14.5 99.28     LegendNANA
20:00 16.4 10.6 69   33 7 14.5 99.31     LegendNANA
21:00 14.0 10.2 78   31 4 14.5 99.37     LegendNANA
22:00 11.4 10.2 92     0 14.5 99.41     LegendNANA
23:00 10.6 9.6 94   30 4 14.5 99.45     LegendNANA

Notes on Data Quality.

Legend

  • E = Estimated
  • M = Missing
  • NA = Not Available*
  • [empty] = Indicates an unobserved value
Date modified: